Simultaneous Nadir Overpasses (SNOs) Predictions

Prediction of SNOs between AQUA and METOP-B Satellite Orbit:

Table of predicted SNOs for the next 14.0 days since TLE Epoch: 10/2/2020
Index Date (AQUA) Time (AQUA) Lat,Lon (AQUA) SZA (AQUA ) Date (METOP-B) Time (METOP-B) Lat,Lon (METOP-B) SZA (METOP-B ) Distance(km) Time Diff (sec)
1 10/04/2020 10:09:25 -73.49,-157.36 101.99 10/04/2020 10:08:15 -73.43,-158.73 102.02 43.78 70
2 10/04/2020 10:58:59 73.85, 9.48 78.41 10/04/2020 10:58:46 73.84, 9.57 78.40 2.88 13
3 10/04/2020 11:48:25 -73.90, 177.02 101.54 10/04/2020 11:49:26 -73.91, 177.05 101.53 1.10 61
4 10/07/2020 05:43:44 -73.79, -91.57 100.60 10/07/2020 05:42:31 -73.78, -91.52 100.61 1.97 73
5 10/07/2020 06:33:12 73.85, 75.94 79.48 10/07/2020 06:33:09 73.84, 75.96 79.47 1.24 3
6 10/07/2020 07:22:39 -73.89,-116.51 100.47 10/07/2020 07:23:50 -73.91,-116.55 100.45 2.36 71
7 10/10/2020 01:17:58 -73.78, -25.12 99.54 10/10/2020 01:16:55 -73.78, -25.11 99.54 0.67 63
8 10/10/2020 02:07:26 73.85, 142.38 80.54 10/10/2020 02:07:33 73.83, 142.36 80.53 1.63 7
9 10/10/2020 02:56:58 -74.14, -50.65 99.14 10/10/2020 02:58:09 -74.15, -49.54 99.15 33.76 71
10 10/12/2020 20:52:12 -73.78, 41.32 98.48 10/12/2020 20:51:19 -73.77, 41.28 98.49 1.72 53
11 10/12/2020 21:41:40 73.85,-151.20 81.60 10/12/2020 21:41:56 73.87,-151.14 81.63 3.11 16
12 10/12/2020 22:31:20 -74.55, 14.81 97.66 10/12/2020 22:32:25 -74.54, 17.86 97.71 90.40 65
13 10/15/2020 16:26:25 -73.79, 107.74 97.43 10/15/2020 16:25:41 -73.81, 107.79 97.41 2.88 44
14 10/15/2020 17:15:53 73.86, -84.78 82.66 10/15/2020 17:16:19 73.86, -84.75 82.66 0.89 26
